sat.trackr.live / text

‹ back to catalog

ONEWEB-0062

NORAD 45163 · 2020-008AJ

PAYLOAD ACTIVE UNKNOWN

§ Identity

Operator
Country
UK
Launch date
2020-02-06
Launch site
TYMSC
Launch vehicle
Mass (kg)
RCS (m²)

Purposes: comms

External: N2YO · Heavens-Above · Gunter

§ Orbital elements

Epoch: 2026-09-20T01:35:37.740192Z

Period
109.89 min
Inclination
87.8912°
Eccentricity
0.0001515
Mean motion
13.10374865 rev/d
Perigee alt
1,220.6 km
Apogee alt
1,222.9 km
Semi-major
7,599.8 km
B*
6.3366e-4
RAAN
17.3819°
Arg perigee
92.9669°
Mean anomaly
267.1632°
Rev number
32,061

§ Raw data

ONEWEB-00621 45163U 20008AJ  26263.06640903  .00000234  00000+0  63366-3 0  99912 45163  87.8912  17.3819 0001515  92.9669 267.1632 13.10374865320615

JSON: /api/v1/satellites/45163 · /tle

For live sub-satellite position, see the globe view (requires WebGL).

§ Visibility from observer

Set your observer location to see the next 7 days of passes ≥ 10°. The values pass through the URL so the page stays shareable.

No JS? Fill the form by hand. The geolocation button needs JavaScript.